Location: Aytr�
(46.1357°N, 1.1145°W)
Time: 14:48:52
(UTC+00:00)

Meteor 2-4 Rocket - Visible Passes

Search period start: 24 June 2021 00:00
Search period end: 04 July 2021 00:00
Orbit: 799 x 909 km, 81.2° (Epoch: 24 June)

Date Brightness Start Highest point End Pass type
(mag) Time Alt. Az. Time Alt. Az. Time Alt. Az.
24 Jun 6.6 03:05:43 10° NNE 03:09:24 17° ENE 03:13:09 10° ESE visible
25 Jun 6.6 02:54:45 10° NNE 02:58:17 17° ENE 03:01:51 10° E visible
26 Jun 6.6 02:43:47 10° NNE 02:47:08 16° ENE 02:50:31 10° E visible
27 Jun 6.6 02:32:50 10° NNE 02:36:00 15° ENE 02:39:11 10° E visible
28 Jun 6.6 02:21:55 10° NNE 02:24:51 14° ENE 02:27:49 10° E visible
29 Jun 6.6 02:11:00 10° NNE 02:13:43 13° ENE 02:16:26 10° E visible
30 Jun 6.7 02:00:08 10° NNE 02:02:33 13° ENE 02:05:01 10° E visible
01 Jul 6.7 01:49:18 10° NE 01:51:25 12° ENE 01:53:33 10° E visible
01 Jul 4.2 03:29:45 10° N 03:35:30 70° ENE 03:41:21 10° SSE visible
02 Jul 6.7 01:38:32 10° NE 01:40:16 11° ENE 01:42:00 10° ENE visible
02 Jul 4.3 03:18:40 10° N 03:24:25 66° ENE 03:30:15 10° SSE visible
03 Jul 6.8 01:27:54 10° NE 01:29:06 11° NE 01:30:20 10° ENE visible
03 Jul 4.4 03:07:35 10° N 03:13:19 62° ENE 03:19:09 10° SSE visible
